Hourly Data Report for January 06, 2021

TORONTO CITY
ONTARIO
Current Station Operator: ECCC - MSC

43°40'00.000" N
79°24'00.000" W
112.50 m
6158355
71508
XTO

Download Data

Hourly Data (January 2021)
Hourly Data Report for January 6, 2021
TIME
LST
Temp Definition
°C
Dew Point Definition
°C
Rel Hum Definition
%
Precip. Amount Definition
mm

Wind Dir Definition
10's deg

Wind Spd Definition
km/h
Visibility Definition
km
Stn Press Definition
kPa
Hmdx Definition


Wind Chill Definition


Weather Definition


00:00 1.2 -2.7 75 0.0       100.58     LegendNANA
01:00 1.0 -3.0 75 0.0       100.62     LegendNANA
02:00 0.8 -3.0 76 0.0       100.68     LegendNANA
03:00 0.8 -3.0 76 0.0       100.73     LegendNANA
04:00 0.8 -3.5 73 0.0       100.75     LegendNANA
05:00 0.6 -3.9 72 0.0       100.77     LegendNANA
06:00 0.0 -3.6 77 0.0       100.77     LegendNANA
07:00 -0.1 -4.3 73 0.0       100.85     LegendNANA
08:00 -0.2 -3.9 76 0.0       100.91     LegendNANA
09:00 0.1 -4.8 70 0.0       100.98     LegendNANA
10:00 0.6 -4.5 69 0.0       101.00     LegendNANA
11:00 0.9 -4.0 69 0.0       100.97     LegendNANA
12:00 1.7 -4.2 65 0.0       100.88     LegendNANA
13:00 1.7 -4.0 66 0.0       100.86     LegendNANA
14:00 1.8 -3.9 66 0.0       100.89     LegendNANA
15:00 2.0 -3.9 65 0.0       100.93     LegendNANA
16:00 2.0 -3.7 66 0.0       101.01     LegendNANA
17:00 1.8 -4.0 66 0.0       101.02     LegendNANA
18:00 1.8 -4.1 65 0.0       101.06     LegendNANA
19:00 1.8 -4.0 65 0.0       101.11     LegendNANA
20:00 1.7 -3.9 66 0.0       101.14     LegendNANA
21:00 1.7 -4.1 65 0.0       101.15     LegendNANA
22:00 1.3 -4.9 63 0.0       101.14     LegendNANA
23:00 1.4 -4.5 65 0.0       101.13     LegendNANA

Notes on Data Quality.

Legend

  • E = Estimated
  • M = Missing
  • NA = Not Available*
  • [empty] = Indicates an unobserved value
Date modified: